Time,TemperatureF,DewpointF,PressureIn,WindDirection,WindDirectionDegrees,WindSpeedMPH,WindSpeedGustMPH,Humidity,HourlyPrecipIn,Conditions,Clouds,dailyrainin,SoftwareType,DateUTC
2013-03-23 00:02:00,50.4,39.9,30.08,NW,321,0.0,0.0,67,0.00,,,0.00,WeatherCatV1.14B232,2013-03-23 07:02:00,
2013-03-23 00:07:00,50.4,39.9,30.08,NW,320,0.0,0.0,67,0.00,,,0.00,WeatherCatV1.14B232,2013-03-23 07:07:00,
2013-03-23 00:12:00,50.3,39.8,30.09,NW,321,0.0,0.0,67,0.00,,,0.00,WeatherCatV1.14B232,2013-03-23 07:12:00,
2013-03-23 00:17:00,50.3,40.1,30.09,NW,321,0.0,0.0,68,0.00,,,0.00,WeatherCatV1.14B232,2013-03-23 07:17:00,
2013-03-23 00:22:00,50.0,39.9,30.09,NW,321,0.0,0.0,68,0.00,,,0.00,WeatherCatV1.14B232,2013-03-23 07:22:00,
2013-03-23 00:27:00,50.0,39.9,30.09,NW,320,0.0,0.0,68,0.00,,,0.00,WeatherCatV1.14B232,2013-03-23 07:27:00,
2013-03-23 00:32:00,50.3,39.8,30.09,WSW,238,0.0,0.0,67,0.00,,,0.00,WeatherCatV1.14B232,2013-03-23 07:32:00,
2013-03-23 00:37:00,50.8,40.2,30.08,SW,236,0.0,0.0,67,0.00,,,0.00,WeatherCatV1.14B232,2013-03-23 07:37:00,
2013-03-23 00:42:00,50.6,40.1,30.09,SW,236,0.0,0.0,67,0.00,,,0.00,WeatherCatV1.14B232,2013-03-23 07:42:00,
2013-03-23 00:47:00,50.2,39.7,30.09,SW,236,0.0,0.0,67,0.00,,,0.00,WeatherCatV1.14B232,2013-03-23 07:47:00,
2013-03-23 00:52:00,49.9,39.8,30.09,SW,236,0.0,0.0,68,0.00,,,0.00,WeatherCatV1.14B232,2013-03-23 07:52:00,
2013-03-23 00:57:00,49.6,39.9,30.09,SW,236,0.0,0.0,69,0.00,,,0.00,WeatherCatV1.14B232,2013-03-23 07:57:00,
2013-03-23 01:02:00,49.6,39.9,30.09,WSW,238,0.0,0.0,69,0.00,,,0.00,WeatherCatV1.14B232,2013-03-23 08:02:00,
2013-03-23 01:07:00,49.8,40.0,30.09,WSW,240,0.0,0.0,69,0.00,,,0.00,WeatherCatV1.14B232,2013-03-23 08:07:00,
2013-03-23 01:12:00,49.8,40.0,30.09,WSW,240,0.0,0.0,69,0.00,,,0.00,WeatherCatV1.14B232,2013-03-23 08:12:00,
2013-03-23 01:17:00,49.7,40.3,30.09,WSW,240,0.0,0.0,70,0.00,,,0.00,WeatherCatV1.14B232,2013-03-23 08:17:00,
2013-03-23 01:22:00,49.5,40.1,30.09,WSW,240,0.0,0.0,70,0.00,,,0.00,WeatherCatV1.14B232,2013-03-23 08:22:00,
2013-03-23 01:27:00,49.4,40.0,30.09,WSW,240,0.0,0.0,70,0.00,,,0.00,WeatherCatV1.14B232,2013-03-23 08:27:00,
2013-03-23 01:32:00,49.3,39.9,30.09,WSW,240,0.0,0.0,70,0.00,,,0.00,WeatherCatV1.14B232,2013-03-23 08:32:00,
2013-03-23 01:37:00,49.3,39.6,30.09,WSW,240,0.0,0.0,69,0.00,,,0.00,WeatherCatV1.14B232,2013-03-23 08:37:00,
2013-03-23 01:42:00,49.1,39.4,30.09,WSW,240,0.0,0.0,69,0.00,,,0.00,WeatherCatV1.14B232,2013-03-23 08:42:00,
2013-03-23 01:47:00,49.0,39.3,30.09,WSW,240,0.0,0.0,69,0.00,,,0.00,WeatherCatV1.14B232,2013-03-23 08:47:00,
2013-03-23 01:52:00,48.8,39.5,30.09,WSW,240,0.0,0.0,70,0.00,,,0.00,WeatherCatV1.14B232,2013-03-23 08:52:00,
2013-03-23 01:57:00,48.6,39.6,30.09,WSW,240,0.0,0.0,71,0.00,,,0.00,WeatherCatV1.14B232,2013-03-23 08:57:00,
2013-03-23 02:02:00,48.3,39.3,30.09,WSW,240,0.0,0.0,71,0.00,,,0.00,WeatherCatV1.14B232,2013-03-23 09:02:00,
2013-03-23 02:07:00,48.1,39.5,30.09,SW,236,0.0,0.0,72,0.00,,,0.00,WeatherCatV1.14B232,2013-03-23 09:07:00,
2013-03-23 02:12:00,48.1,39.5,30.09,SW,236,0.0,0.0,72,0.00,,,0.00,WeatherCatV1.14B232,2013-03-23 09:12:00,
2013-03-23 02:17:00,47.9,39.3,30.09,SW,236,0.0,0.0,72,0.00,,,0.00,WeatherCatV1.14B232,2013-03-23 09:17:00,
2013-03-23 02:22:00,47.6,39.4,30.09,WSW,238,0.0,0.0,73,0.00,,,0.00,WeatherCatV1.14B232,2013-03-23 09:22:00,
2013-03-23 02:27:00,47.5,39.3,30.09,SW,236,0.0,0.0,73,0.00,,,0.00,WeatherCatV1.14B232,2013-03-23 09:27:00,
2013-03-23 02:32:00,47.7,39.5,30.09,SW,236,0.0,0.0,73,0.00,,,0.00,WeatherCatV1.14B232,2013-03-23 09:32:00,
2013-03-23 02:37:00,47.7,39.5,30.09,WSW,238,0.0,0.0,73,0.00,,,0.00,WeatherCatV1.14B232,2013-03-23 09:37:00,
2013-03-23 02:42:00,47.6,39.4,30.09,SW,236,0.0,0.0,73,0.00,,,0.00,WeatherCatV1.14B232,2013-03-23 09:42:00,
2013-03-23 02:47:00,47.6,39.4,30.09,SW,236,0.0,0.0,73,0.00,,,0.00,WeatherCatV1.14B232,2013-03-23 09:47:00,
2013-03-23 02:52:00,47.6,39.4,30.09,SW,236,0.0,0.0,73,0.00,,,0.00,WeatherCatV1.14B232,2013-03-23 09:52:00,
2013-03-23 02:57:00,47.5,39.3,30.09,SW,236,0.0,0.0,73,0.00,,,0.00,WeatherCatV1.14B232,2013-03-23 09:57:00,
2013-03-23 03:02:00,47.7,38.0,30.09,SW,236,0.0,0.0,69,0.00,,,0.00,WeatherCatV1.14B232,2013-03-23 10:02:00,
2013-03-23 03:07:00,48.1,37.7,30.09,SW,236,0.0,0.0,67,0.00,,,0.00,WeatherCatV1.14B232,2013-03-23 10:07:00,
2013-03-23 03:12:00,48.3,37.5,30.09,SW,236,0.0,0.0,66,0.00,,,0.00,WeatherCatV1.14B232,2013-03-23 10:12:00,
2013-03-23 03:17:00,48.4,37.6,30.09,SW,236,0.0,0.0,66,0.00,,,0.00,WeatherCatV1.14B232,2013-03-23 10:17:00,
2013-03-23 03:22:00,48.4,37.2,30.09,SW,236,0.0,0.0,65,0.00,,,0.00,WeatherCatV1.14B232,2013-03-23 10:22:00,
2013-03-23 03:27:00,48.5,37.3,30.09,SW,236,0.0,0.0,65,0.00,,,0.00,WeatherCatV1.14B232,2013-03-23 10:27:00,
2013-03-23 03:32:00,48.4,37.2,30.09,SW,236,0.0,0.0,65,0.00,,,0.00,WeatherCatV1.14B232,2013-03-23 10:32:00,
2013-03-23 03:37:00,48.2,37.4,30.09,SW,236,0.0,0.0,66,0.00,,,0.00,WeatherCatV1.14B232,2013-03-23 10:37:00,
2013-03-23 03:42:00,48.1,38.0,30.09,SW,236,0.0,0.0,68,0.00,,,0.00,WeatherCatV1.14B232,2013-03-23 10:42:00,
2013-03-23 03:47:00,48.0,38.0,30.08,WSW,238,0.0,0.0,68,0.00,,,0.00,WeatherCatV1.14B232,2013-03-23 10:47:00,
2013-03-23 03:52:00,48.0,38.0,30.08,WSW,238,0.0,0.0,68,0.00,,,0.00,WeatherCatV1.14B232,2013-03-23 10:52:00,
2013-03-23 03:57:00,48.0,38.3,30.08,WSW,238,0.0,0.0,69,0.00,,,0.00,WeatherCatV1.14B232,2013-03-23 10:57:00,
2013-03-23 04:02:00,48.0,37.6,30.09,WSW,239,0.0,0.0,67,0.00,,,0.00,WeatherCatV1.14B232,2013-03-23 11:02:00,
2013-03-23 04:07:00,48.3,37.5,30.08,WSW,239,0.0,0.0,66,0.00,,,0.00,WeatherCatV1.14B232,2013-03-23 11:07:00,
2013-03-23 04:12:00,48.9,38.0,30.08,WSW,239,0.0,0.0,66,0.00,,,0.00,WeatherCatV1.14B232,2013-03-23 11:12:00,
2013-03-23 04:17:00,48.8,38.0,30.08,WSW,239,0.0,0.0,66,0.00,,,0.00,WeatherCatV1.14B232,2013-03-23 11:17:00,
2013-03-23 04:22:00,48.9,38.0,30.08,NNW,333,0.0,0.0,66,0.00,,,0.00,WeatherCatV1.14B232,2013-03-23 11:22:00,
2013-03-23 04:27:00,49.0,38.1,30.08,WSW,247,0.0,0.0,66,0.00,,,0.00,WeatherCatV1.14B232,2013-03-23 11:27:00,
2013-03-23 04:32:00,49.1,37.8,30.08,WSW,248,0.0,0.0,65,0.00,,,0.00,WeatherCatV1.14B232,2013-03-23 11:32:00,
2013-03-23 04:37:00,49.2,37.9,30.08,WSW,248,0.0,0.0,65,0.00,,,0.00,WeatherCatV1.14B232,2013-03-23 11:37:00,
2013-03-23 04:42:00,49.1,38.2,30.08,WSW,248,0.0,0.0,66,0.00,,,0.00,WeatherCatV1.14B232,2013-03-23 11:42:00,
2013-03-23 04:47:00,48.9,38.0,30.08,WSW,248,0.0,0.0,66,0.00,,,0.00,WeatherCatV1.14B232,2013-03-23 11:47:00,
2013-03-23 04:52:00,49.2,37.5,30.08,WSW,252,0.0,0.0,64,0.00,,,0.00,WeatherCatV1.14B232,2013-03-23 11:52:00,
2013-03-23 04:57:00,49.6,37.1,30.08,WSW,252,0.0,0.0,62,0.00,,,0.00,WeatherCatV1.14B232,2013-03-23 11:57:00,
2013-03-23 05:02:00,49.8,36.1,30.08,WSW,252,0.0,0.0,59,0.00,,,0.00,WeatherCatV1.14B232,2013-03-23 12:02:00,
2013-03-23 05:07:00,50.1,35.9,30.08,SW,232,0.0,0.0,58,0.00,,,0.00,WeatherCatV1.14B232,2013-03-23 12:07:00,
2013-03-23 05:12:00,50.4,35.7,30.08,SW,236,0.0,0.0,57,0.00,,,0.00,WeatherCatV1.14B232,2013-03-23 12:12:00,
2013-03-23 05:17:00,50.2,36.4,30.08,SW,236,0.0,0.0,59,0.00,,,0.00,WeatherCatV1.14B232,2013-03-23 12:17:00,
2013-03-23 05:22:00,49.7,36.4,30.08,SW,236,0.0,0.0,60,0.00,,,0.00,WeatherCatV1.14B232,2013-03-23 12:22:00,
2013-03-23 05:27:00,49.3,35.6,30.08,WSW,239,0.0,0.0,59,0.00,,,0.00,WeatherCatV1.14B232,2013-03-23 12:27:00,
2013-03-23 05:32:00,49.2,35.5,30.08,WSW,251,0.0,0.0,59,0.00,,,0.00,WeatherCatV1.14B232,2013-03-23 12:32:00,
2013-03-23 05:37:00,49.3,35.6,30.08,WSW,240,0.0,0.0,59,0.00,,,0.00,WeatherCatV1.14B232,2013-03-23 12:37:00,
2013-03-23 05:42:00,49.2,36.3,30.09,SW,228,0.0,0.0,61,0.00,,,0.00,WeatherCatV1.14B232,2013-03-23 12:42:00,
2013-03-23 05:47:00,49.0,38.1,30.09,SW,226,0.0,0.0,66,0.00,,,0.00,WeatherCatV1.14B232,2013-03-23 12:47:00,
2013-03-23 05:52:00,48.8,39.5,30.08,SW,220,0.0,0.0,70,0.00,,,0.00,WeatherCatV1.14B232,2013-03-23 12:52:00,
2013-03-23 05:57:00,48.3,40.1,30.09,SW,219,0.0,0.0,73,0.00,,,0.00,WeatherCatV1.14B232,2013-03-23 12:57:00,
2013-03-23 06:02:00,47.9,40.0,30.09,SW,219,0.0,0.0,74,0.00,,,0.00,WeatherCatV1.14B232,2013-03-23 13:02:00,
2013-03-23 06:07:00,47.5,40.3,30.09,SW,219,0.0,0.0,76,0.00,,,0.00,WeatherCatV1.14B232,2013-03-23 13:07:00,
2013-03-23 06:12:00,47.0,40.2,30.09,SW,219,0.0,0.0,77,0.00,,,0.00,WeatherCatV1.14B232,2013-03-23 13:12:00,
2013-03-23 06:17:00,46.7,39.9,30.09,SW,224,0.0,0.0,77,0.00,,,0.00,WeatherCatV1.14B232,2013-03-23 13:17:00,
2013-03-23 06:22:00,46.4,39.9,30.09,SW,226,0.0,0.0,78,0.00,,,0.00,WeatherCatV1.14B232,2013-03-23 13:22:00,
2013-03-23 06:27:00,46.2,39.4,30.09,SW,226,0.0,0.0,77,0.00,,,0.00,WeatherCatV1.14B232,2013-03-23 13:27:00,
2013-03-23 06:32:00,46.1,39.3,30.09,WSW,243,0.0,0.0,77,0.00,,,0.00,WeatherCatV1.14B232,2013-03-23 13:32:00,
2013-03-23 06:37:00,46.2,39.1,30.09,WSW,243,0.0,0.0,76,0.00,,,0.00,WeatherCatV1.14B232,2013-03-23 13:37:00,
2013-03-23 06:42:00,46.3,37.8,30.09,SW,233,0.0,0.0,72,0.00,,,0.00,WeatherCatV1.14B232,2013-03-23 13:42:00,
2013-03-23 06:47:00,47.0,37.4,30.09,WSW,253,0.0,0.0,69,0.00,,,0.00,WeatherCatV1.14B232,2013-03-23 13:47:00,
2013-03-23 06:52:00,47.5,37.1,30.09,WSW,257,0.0,0.0,67,0.00,,,0.00,WeatherCatV1.14B232,2013-03-23 13:52:00,
2013-03-23 06:57:00,47.7,36.9,30.10,WSW,257,0.0,0.0,66,0.00,,,0.00,WeatherCatV1.14B232,2013-03-23 13:57:00,
2013-03-23 07:02:00,47.8,37.0,30.09,WSW,257,0.0,0.0,66,0.00,,,0.00,WeatherCatV1.14B232,2013-03-23 14:02:00,
2013-03-23 07:07:00,47.6,36.8,30.10,SSW,210,0.0,0.0,66,0.00,,,0.00,WeatherCatV1.14B232,2013-03-23 14:07:00,
2013-03-23 07:12:00,47.6,36.8,30.11,West,259,0.0,0.0,66,0.00,,,0.00,WeatherCatV1.14B232,2013-03-23 14:12:00,
2013-03-23 07:17:00,47.6,36.4,30.11,West,259,0.0,0.0,65,0.00,,,0.00,WeatherCatV1.14B232,2013-03-23 14:17:00,
2013-03-23 07:22:00,47.6,36.4,30.11,WSW,249,0.0,0.0,65,0.00,,,0.00,WeatherCatV1.14B232,2013-03-23 14:22:00,
2013-03-23 07:27:00,47.6,36.0,30.11,West,264,0.0,0.0,64,0.00,,,0.00,WeatherCatV1.14B232,2013-03-23 14:27:00,
2013-03-23 07:32:00,47.8,35.4,30.11,West,264,0.0,0.0,62,0.00,,,0.00,WeatherCatV1.14B232,2013-03-23 14:32:00,
2013-03-23 07:37:00,47.9,35.1,30.12,WSW,252,0.0,0.0,61,0.00,,,0.00,WeatherCatV1.14B232,2013-03-23 14:37:00,
2013-03-23 07:42:00,48.1,34.5,30.12,WSW,252,0.0,0.0,59,0.00,,,0.00,WeatherCatV1.14B232,2013-03-23 14:42:00,
2013-03-23 07:47:00,48.2,34.6,30.12,WSW,253,0.0,0.0,59,0.00,,,0.00,WeatherCatV1.14B232,2013-03-23 14:47:00,
2013-03-23 07:52:00,48.3,34.2,30.12,WSW,249,0.0,1.0,58,0.00,,,0.00,WeatherCatV1.14B232,2013-03-23 14:52:00,
2013-03-23 07:57:00,48.7,34.2,30.12,SW,236,0.0,0.0,57,0.00,,,0.00,WeatherCatV1.14B232,2013-03-23 14:57:00,
2013-03-23 08:02:00,49.0,33.5,30.13,WSW,240,0.0,0.0,55,0.00,,,0.00,WeatherCatV1.14B232,2013-03-23 15:02:00,
2013-03-23 08:07:00,49.4,33.9,30.13,WSW,245,0.0,0.0,55,0.00,,,0.00,WeatherCatV1.14B232,2013-03-23 15:07:00,
2013-03-23 08:12:00,49.5,34.9,30.13,WSW,249,0.0,0.0,57,0.00,,,0.00,WeatherCatV1.14B232,2013-03-23 15:12:00,
2013-03-23 08:17:00,49.6,35.0,30.13,WSW,249,0.0,0.0,57,0.00,,,0.00,WeatherCatV1.14B232,2013-03-23 15:17:00,
2013-03-23 08:22:00,49.8,34.7,30.14,SW,229,0.0,0.0,56,0.00,,,0.00,WeatherCatV1.14B232,2013-03-23 15:22:00,
2013-03-23 08:27:00,50.0,34.5,30.14,SW,232,0.0,0.0,55,0.00,,,0.00,WeatherCatV1.14B232,2013-03-23 15:27:00,
2013-03-23 08:32:00,50.0,34.9,30.14,SW,232,0.0,0.0,56,0.00,,,0.00,WeatherCatV1.14B232,2013-03-23 15:32:00,
2013-03-23 08:37:00,50.2,36.0,30.15,SW,232,0.0,0.0,58,0.00,,,0.00,WeatherCatV1.14B232,2013-03-23 15:37:00,
2013-03-23 08:42:00,50.4,35.7,30.14,SW,232,0.0,0.0,57,0.00,,,0.00,WeatherCatV1.14B232,2013-03-23 15:42:00,
2013-03-23 08:47:00,50.7,38.6,30.15,SW,232,0.0,0.0,63,0.00,,,0.00,WeatherCatV1.14B232,2013-03-23 15:47:00,
2013-03-23 08:52:00,51.0,38.9,30.14,SW,232,0.0,0.0,63,0.00,,,0.00,WeatherCatV1.14B232,2013-03-23 15:52:00,
2013-03-23 08:57:00,51.3,39.1,30.14,SW,233,0.0,0.0,63,0.00,,,0.00,WeatherCatV1.14B232,2013-03-23 15:57:00,
2013-03-23 09:02:00,51.6,37.7,30.14,NE,35,0.0,0.0,59,0.00,,,0.00,WeatherCatV1.14B232,2013-03-23 16:02:00,
2013-03-23 09:07:00,52.0,37.2,30.14,NNE,20,0.0,0.0,57,0.00,,,0.00,WeatherCatV1.14B232,2013-03-23 16:07:00,
2013-03-23 09:12:00,52.2,37.0,30.13,NNE,22,0.0,0.0,56,0.00,,,0.00,WeatherCatV1.14B232,2013-03-23 16:12:00,
2013-03-23 09:17:00,52.6,36.4,30.13,NE,48,0.0,0.0,54,0.00,,,0.00,WeatherCatV1.14B232,2013-03-23 16:17:00,
2013-03-23 09:22:00,52.7,37.0,30.13,NE,49,0.0,0.0,55,0.00,,,0.00,WeatherCatV1.14B232,2013-03-23 16:22:00,
2013-03-23 09:27:00,53.0,37.7,30.13,NE,49,0.0,0.0,56,0.00,,,0.00,WeatherCatV1.14B232,2013-03-23 16:27:00,
2013-03-23 09:32:00,53.5,36.3,30.13,NE,45,0.0,0.0,52,0.00,,,0.00,WeatherCatV1.14B232,2013-03-23 16:32:00,
2013-03-23 09:37:00,53.9,38.1,30.14,NE,44,0.0,0.0,55,0.00,,,0.00,WeatherCatV1.14B232,2013-03-23 16:37:00,
2013-03-23 09:42:00,54.4,38.6,30.14,NE,44,0.0,0.0,55,0.00,,,0.00,WeatherCatV1.14B232,2013-03-23 16:42:00,
2013-03-23 09:47:00,54.4,37.1,30.14,NE,47,0.0,0.0,52,0.00,,,0.00,WeatherCatV1.14B232,2013-03-23 16:47:00,
2013-03-23 09:52:00,54.1,37.4,30.14,NE,51,0.0,0.0,53,0.00,,,0.00,WeatherCatV1.14B232,2013-03-23 16:52:00,
2013-03-23 09:57:00,54.3,38.0,30.14,NE,51,0.0,0.0,54,0.00,,,0.00,WeatherCatV1.14B232,2013-03-23 16:57:00,
2013-03-23 10:02:00,54.3,36.6,30.14,NE,51,0.0,0.0,51,0.00,,,0.00,WeatherCatV1.14B232,2013-03-23 17:02:00,
2013-03-23 10:07:00,54.3,38.0,30.14,NE,47,0.0,0.0,54,0.00,,,0.00,WeatherCatV1.14B232,2013-03-23 17:07:00,
2013-03-23 10:12:00,54.8,38.9,30.14,ENE,60,0.0,0.0,55,0.00,,,0.00,WeatherCatV1.14B232,2013-03-23 17:12:00,
2013-03-23 10:17:00,56.0,41.0,30.14,ENE,61,0.0,0.0,57,0.00,,,0.00,WeatherCatV1.14B232,2013-03-23 17:17:00,
2013-03-23 10:22:00,56.6,40.6,30.14,NE,51,0.0,0.0,55,0.00,,,0.00,WeatherCatV1.14B232,2013-03-23 17:22:00,
2013-03-23 10:27:00,56.9,42.7,30.15,NE,42,0.0,0.0,59,0.00,,,0.00,WeatherCatV1.14B232,2013-03-23 17:27:00,
2013-03-23 10:32:00,57.3,40.8,30.15,NE,42,0.0,0.0,54,0.00,,,0.00,WeatherCatV1.14B232,2013-03-23 17:32:00,
2013-03-23 10:37:00,57.3,41.7,30.14,NE,47,0.0,0.0,56,0.00,,,0.00,WeatherCatV1.14B232,2013-03-23 17:37:00,
2013-03-23 10:42:00,57.9,40.9,30.14,NE,56,0.0,0.0,53,0.00,,,0.00,WeatherCatV1.14B232,2013-03-23 17:42:00,
2013-03-23 10:47:00,58.4,40.3,30.15,NE,50,0.0,0.0,51,0.00,,,0.00,WeatherCatV1.14B232,2013-03-23 17:47:00,
2013-03-23 10:53:00,58.5,38.9,30.15,NE,44,0.0,0.0,48,0.00,,,0.00,WeatherCatV1.14B232,2013-03-23 17:53:00,
2013-03-23 10:58:00,58.5,38.3,30.14,ENE,62,0.0,0.0,47,0.00,,,0.00,WeatherCatV1.14B232,2013-03-23 17:58:00,
2013-03-23 11:03:00,58.3,38.7,30.14,ENE,61,0.0,0.0,48,0.00,,,0.00,WeatherCatV1.14B232,2013-03-23 18:03:00,
2013-03-23 11:08:00,58.5,38.3,30.14,ENE,68,0.0,0.0,47,0.00,,,0.00,WeatherCatV1.14B232,2013-03-23 18:08:00,
2013-03-23 11:13:00,59.0,36.5,30.14,ENE,61,1.0,3.0,43,0.00,,,0.00,WeatherCatV1.14B232,2013-03-23 18:13:00,
2013-03-23 11:18:00,58.9,35.8,30.14,ENE,60,1.0,3.0,42,0.00,,,0.00,WeatherCatV1.14B232,2013-03-23 18:18:00,
2013-03-23 11:23:00,59.0,35.3,30.14,NE,44,0.0,2.0,41,0.00,,,0.00,WeatherCatV1.14B232,2013-03-23 18:23:00,
2013-03-23 11:28:00,59.4,35.1,30.14,NE,54,0.0,1.0,40,0.00,,,0.00,WeatherCatV1.14B232,2013-03-23 18:28:00,
2013-03-23 11:33:00,58.9,34.6,30.14,NE,52,1.0,2.0,40,0.00,,,0.00,WeatherCatV1.14B232,2013-03-23 18:33:00,
2013-03-23 11:38:00,58.9,35.2,30.14,NE,49,0.0,1.0,41,0.00,,,0.00,WeatherCatV1.14B232,2013-03-23 18:38:00,
2013-03-23 11:43:00,59.7,34.7,30.14,NE,53,0.0,2.0,39,0.00,,,0.00,WeatherCatV1.14B232,2013-03-23 18:43:00,
2013-03-23 11:48:00,59.6,34.6,30.13,NE,34,1.0,3.0,39,0.00,,,0.00,WeatherCatV1.14B232,2013-03-23 18:48:00,
2013-03-23 11:53:00,59.3,33.7,30.13,NE,49,1.0,3.0,38,0.00,,,0.00,WeatherCatV1.14B232,2013-03-23 18:53:00,
2013-03-23 11:58:00,59.7,36.0,30.13,ENE,68,0.0,1.0,41,0.00,,,0.00,WeatherCatV1.14B232,2013-03-23 18:58:00,
2013-03-23 12:03:00,61.1,35.3,30.13,NE,42,0.0,2.0,38,0.00,,,0.00,WeatherCatV1.14B232,2013-03-23 19:03:00,
2013-03-23 12:10:00,61.1,31.8,30.13,NE,49,0.0,0.0,33,0.00,,,0.00,WeatherCatV1.14B232,2013-03-23 19:10:00,
2013-03-23 12:15:00,62.0,33.3,30.13,NE,42,0.0,0.0,34,0.00,,,0.00,WeatherCatV1.14B232,2013-03-23 19:15:00,
2013-03-23 12:20:00,63.2,32.1,30.13,NE,43,0.0,1.0,31,0.00,,,0.00,WeatherCatV1.14B232,2013-03-23 19:20:00,
2013-03-23 12:25:00,63.0,29.4,30.13,ENE,57,0.0,2.0,28,0.00,,,0.00,WeatherCatV1.14B232,2013-03-23 19:25:00,
2013-03-23 12:30:00,63.4,32.2,30.12,NE,53,0.0,0.0,31,0.00,,,0.00,WeatherCatV1.14B232,2013-03-23 19:30:00,
2013-03-23 12:35:00,63.4,29.7,30.12,NE,42,0.0,1.0,28,0.00,,,0.00,WeatherCatV1.14B232,2013-03-23 19:35:00,
2013-03-23 12:40:00,62.9,29.3,30.12,NE,49,0.0,0.0,28,0.00,,,0.00,WeatherCatV1.14B232,2013-03-23 19:40:00,
2013-03-23 12:45:00,62.8,30.9,30.12,NE,51,0.0,0.0,30,0.00,,,0.00,WeatherCatV1.14B232,2013-03-23 19:45:00,
2013-03-23 12:50:00,63.2,31.3,30.12,NE,39,0.0,2.0,30,0.00,,,0.00,WeatherCatV1.14B232,2013-03-23 19:50:00,
2013-03-23 12:55:00,64.0,31.1,30.12,NE,39,0.0,2.0,29,0.00,,,0.00,WeatherCatV1.14B232,2013-03-23 19:55:00,
2013-03-23 13:00:00,64.0,32.8,30.11,NE,50,0.0,1.0,31,0.00,,,0.00,WeatherCatV1.14B232,2013-03-23 20:00:00,
2013-03-23 13:05:00,64.9,32.7,30.11,NE,44,0.0,0.0,30,0.00,,,0.00,WeatherCatV1.14B232,2013-03-23 20:05:00,
2013-03-23 13:10:00,65.4,32.3,30.11,NE,47,1.0,1.0,29,0.00,,,0.00,WeatherCatV1.14B232,2013-03-23 20:10:00,
2013-03-23 13:15:00,65.4,32.3,30.11,NE,43,0.0,0.0,29,0.00,,,0.00,WeatherCatV1.14B232,2013-03-23 20:15:00,
2013-03-23 13:20:00,66.1,32.0,30.11,NE,39,1.0,2.0,28,0.00,,,0.00,WeatherCatV1.14B232,2013-03-23 20:20:00,
2013-03-23 13:25:00,66.1,29.3,30.10,ENE,60,1.0,1.0,25,0.00,,,0.00,WeatherCatV1.14B232,2013-03-23 20:25:00,
2013-03-23 13:30:00,65.9,31.0,30.10,NE,44,0.0,1.0,27,0.00,,,0.00,WeatherCatV1.14B232,2013-03-23 20:30:00,
2013-03-23 13:35:00,66.1,29.3,30.10,ENE,57,0.0,1.0,25,0.00,,,0.00,WeatherCatV1.14B232,2013-03-23 20:35:00,
2013-03-23 13:40:00,66.4,30.5,30.10,NE,39,1.0,1.0,26,0.00,,,0.00,WeatherCatV1.14B232,2013-03-23 20:40:00,
2013-03-23 13:45:00,67.4,30.4,30.10,ENE,70,1.0,1.0,25,0.00,,,0.00,WeatherCatV1.14B232,2013-03-23 20:45:00,
2013-03-23 13:51:00,67.5,29.4,30.10,NE,43,0.0,1.0,24,0.00,,,0.00,WeatherCatV1.14B232,2013-03-23 20:51:00,
2013-03-23 13:56:00,67.5,29.4,30.10,NE,44,0.0,0.0,24,0.00,,,0.00,WeatherCatV1.14B232,2013-03-23 20:56:00,
2013-03-23 14:01:00,67.0,29.0,30.10,NE,48,1.0,1.0,24,0.00,,,0.00,WeatherCatV1.14B232,2013-03-23 21:01:00,
2013-03-23 14:06:00,66.6,30.6,30.09,NE,43,1.0,1.0,26,0.00,,,0.00,WeatherCatV1.14B232,2013-03-23 21:06:00,
2013-03-23 14:11:00,66.3,29.4,30.09,NE,43,0.0,0.0,25,0.00,,,0.00,WeatherCatV1.14B232,2013-03-23 21:11:00,
2013-03-23 14:16:00,66.5,30.6,30.09,WSW,253,1.0,4.0,26,0.00,,,0.00,WeatherCatV1.14B232,2013-03-23 21:16:00,
2013-03-23 14:21:00,65.8,29.0,30.09,West,274,2.0,4.0,25,0.00,,,0.00,WeatherCatV1.14B232,2013-03-23 21:21:00,
2013-03-23 14:26:00,66.1,31.1,30.09,SW,232,5.0,5.0,27,0.00,,,0.00,WeatherCatV1.14B232,2013-03-23 21:26:00,
2013-03-23 14:31:00,66.3,29.4,30.09,WSW,249,4.0,5.0,25,0.00,,,0.00,WeatherCatV1.14B232,2013-03-23 21:31:00,
2013-03-23 14:36:00,65.6,29.8,30.09,WSW,243,3.0,5.0,26,0.00,,,0.00,WeatherCatV1.14B232,2013-03-23 21:36:00,
2013-03-23 14:41:00,65.1,30.3,30.08,West,267,2.0,5.0,27,0.00,,,0.00,WeatherCatV1.14B232,2013-03-23 21:41:00,
2013-03-23 14:46:00,64.5,33.2,30.08,SW,236,2.0,4.0,31,0.00,,,0.00,WeatherCatV1.14B232,2013-03-23 21:46:00,
2013-03-23 14:52:00,63.9,37.1,30.08,WSW,246,3.0,4.0,37,0.00,,,0.00,WeatherCatV1.14B232,2013-03-23 21:52:00,
2013-03-23 14:57:00,63.6,37.5,30.08,WSW,239,3.0,7.0,38,0.00,,,0.00,WeatherCatV1.14B232,2013-03-23 21:57:00,
2013-03-23 15:02:00,63.0,37.7,30.08,West,270,3.0,9.0,39,0.00,,,0.00,WeatherCatV1.14B232,2013-03-23 22:02:00,
2013-03-23 15:07:00,62.8,38.1,30.08,West,263,4.0,6.0,40,0.00,,,0.00,WeatherCatV1.14B232,2013-03-23 22:07:00,
2013-03-23 15:12:00,63.1,39.0,30.07,West,259,4.0,8.0,41,0.00,,,0.00,WeatherCatV1.14B232,2013-03-23 22:12:00,
2013-03-23 15:17:00,63.1,39.0,30.07,WSW,243,3.0,6.0,41,0.00,,,0.00,WeatherCatV1.14B232,2013-03-23 22:17:00,
2013-03-23 15:22:00,63.4,38.0,30.07,West,260,2.0,8.0,39,0.00,,,0.00,WeatherCatV1.14B232,2013-03-23 22:22:00,
2013-03-23 15:27:00,63.3,37.3,30.07,WSW,253,5.0,7.0,38,0.00,,,0.00,WeatherCatV1.14B232,2013-03-23 22:27:00,
2013-03-23 15:32:00,62.9,37.6,30.07,WSW,243,7.0,9.0,39,0.00,,,0.00,WeatherCatV1.14B232,2013-03-23 22:32:00,
2013-03-23 15:37:00,62.7,38.0,30.07,WSW,256,7.0,8.0,40,0.00,,,0.00,WeatherCatV1.14B232,2013-03-23 22:37:00,
2013-03-23 15:42:00,62.4,37.8,30.07,West,259,7.0,9.0,40,0.00,,,0.00,WeatherCatV1.14B232,2013-03-23 22:42:00,
2013-03-23 15:47:00,62.3,38.3,30.07,SSW,211,5.0,11.0,41,0.00,,,0.00,WeatherCatV1.14B232,2013-03-23 22:47:00,
2013-03-23 15:52:00,62.8,38.7,30.07,SW,228,6.0,8.0,41,0.00,,,0.00,WeatherCatV1.14B232,2013-03-23 22:52:00,
2013-03-23 15:57:00,63.1,37.7,30.07,West,262,9.0,11.0,39,0.00,,,0.00,WeatherCatV1.14B232,2013-03-23 22:57:00,
2013-03-23 16:02:00,62.9,36.9,30.06,WSW,257,6.0,10.0,38,0.00,,,0.00,WeatherCatV1.14B232,2013-03-23 23:02:00,
2013-03-23 16:07:00,63.1,39.0,30.06,West,276,6.0,8.0,41,0.00,,,0.00,WeatherCatV1.14B232,2013-03-23 23:07:00,
2013-03-23 16:12:00,63.6,37.5,30.07,WSW,252,4.0,7.0,38,0.00,,,0.00,WeatherCatV1.14B232,2013-03-23 23:12:00,
2013-03-23 16:17:00,63.4,36.0,30.07,WSW,255,10.0,10.0,36,0.00,,,0.00,WeatherCatV1.14B232,2013-03-23 23:17:00,
2013-03-23 16:22:00,62.8,36.1,30.07,WNW,293,8.0,13.0,37,0.00,,,0.00,WeatherCatV1.14B232,2013-03-23 23:22:00,
2013-03-23 16:27:00,62.7,35.4,30.07,WSW,239,8.0,13.0,36,0.00,,,0.00,WeatherCatV1.14B232,2013-03-23 23:27:00,
2013-03-23 16:32:00,62.7,36.7,30.07,WSW,255,10.0,10.0,38,0.00,,,0.00,WeatherCatV1.14B232,2013-03-23 23:32:00,
2013-03-23 16:37:00,63.0,37.0,30.06,WSW,255,10.0,12.0,38,0.00,,,0.00,WeatherCatV1.14B232,2013-03-23 23:37:00,
2013-03-23 16:42:00,63.1,35.7,30.06,SW,228,6.0,14.0,36,0.00,,,0.00,WeatherCatV1.14B232,2013-03-23 23:42:00,
2013-03-23 16:47:00,63.7,37.6,30.06,SSW,211,6.0,8.0,38,0.00,,,0.00,WeatherCatV1.14B232,2013-03-23 23:47:00,
2013-03-23 16:52:00,64.0,37.2,30.06,West,262,8.0,10.0,37,0.00,,,0.00,WeatherCatV1.14B232,2013-03-23 23:52:00,
2013-03-23 16:57:00,63.9,36.4,30.06,West,271,10.0,11.0,36,0.00,,,0.00,WeatherCatV1.14B232,2013-03-23 23:57:00,
2013-03-23 17:02:00,63.6,36.2,30.06,West,273,7.0,12.0,36,0.00,,,0.00,WeatherCatV1.14B232,2013-03-24 00:02:00,
2013-03-23 17:07:00,63.4,35.3,30.06,WSW,255,8.0,13.0,35,0.00,,,0.00,WeatherCatV1.14B232,2013-03-24 00:07:00,
2013-03-23 17:12:00,63.1,35.7,30.05,West,259,8.0,12.0,36,0.00,,,0.00,WeatherCatV1.14B232,2013-03-24 00:12:00,
2013-03-23 17:17:00,63.0,35.6,30.06,West,269,6.0,11.0,36,0.00,,,0.00,WeatherCatV1.14B232,2013-03-24 00:17:00,
2013-03-23 17:22:00,63.3,36.6,30.06,West,270,5.0,9.0,37,0.00,,,0.00,WeatherCatV1.14B232,2013-03-24 00:22:00,
2013-03-23 17:27:00,63.5,36.8,30.06,WSW,242,6.0,11.0,37,0.00,,,0.00,WeatherCatV1.14B232,2013-03-24 00:27:00,
2013-03-23 17:32:00,63.2,36.5,30.06,SW,228,7.0,11.0,37,0.00,,,0.00,WeatherCatV1.14B232,2013-03-24 00:32:00,
2013-03-23 17:37:00,63.3,37.9,30.06,WSW,254,7.0,9.0,39,0.00,,,0.00,WeatherCatV1.14B232,2013-03-24 00:37:00,
2013-03-23 17:42:00,62.9,38.2,30.06,West,270,8.0,10.0,40,0.00,,,0.00,WeatherCatV1.14B232,2013-03-24 00:42:00,
2013-03-23 17:47:00,62.5,37.2,30.06,WSW,243,6.0,11.0,39,0.00,,,0.00,WeatherCatV1.14B232,2013-03-24 00:47:00,
2013-03-23 17:52:00,62.0,36.8,30.06,West,259,7.0,11.0,39,0.00,,,0.00,WeatherCatV1.14B232,2013-03-24 00:52:00,
2013-03-23 17:57:00,61.8,36.6,30.06,WNW,289,7.0,11.0,39,0.00,,,0.00,WeatherCatV1.14B232,2013-03-24 00:57:00,
2013-03-23 18:02:00,61.8,36.6,30.06,West,262,7.0,11.0,39,0.00,,,0.00,WeatherCatV1.14B232,2013-03-24 01:02:00,
2013-03-23 18:07:00,61.6,36.4,30.06,West,267,8.0,12.0,39,0.00,,,0.00,WeatherCatV1.14B232,2013-03-24 01:07:00,
2013-03-23 18:12:00,61.3,38.0,30.06,WSW,257,7.0,11.0,42,0.00,,,0.00,WeatherCatV1.14B232,2013-03-24 01:12:00,
2013-03-23 18:17:00,61.0,37.7,30.06,WSW,243,6.0,11.0,42,0.00,,,0.00,WeatherCatV1.14B232,2013-03-24 01:17:00,
2013-03-23 18:22:00,60.3,37.7,30.06,SW,225,10.0,13.0,43,0.00,,,0.00,WeatherCatV1.14B232,2013-03-24 01:22:00,
2013-03-23 18:27:00,59.9,37.3,30.06,WSW,246,11.0,12.0,43,0.00,,,0.00,WeatherCatV1.14B232,2013-03-24 01:27:00,
2013-03-23 18:32:00,59.8,36.7,30.06,WSW,245,10.0,11.0,42,0.00,,,0.00,WeatherCatV1.14B232,2013-03-24 01:32:00,
2013-03-23 18:37:00,59.5,37.0,30.06,West,269,6.0,11.0,43,0.00,,,0.00,WeatherCatV1.14B232,2013-03-24 01:37:00,
2013-03-23 18:42:00,59.4,36.9,30.06,WSW,242,8.0,10.0,43,0.00,,,0.00,WeatherCatV1.14B232,2013-03-24 01:42:00,
2013-03-23 18:47:00,59.0,34.7,30.06,SW,233,9.0,12.0,40,0.00,,,0.00,WeatherCatV1.14B232,2013-03-24 01:47:00,
2013-03-23 18:52:00,58.8,35.2,30.06,West,259,7.0,9.0,41,0.00,,,0.00,WeatherCatV1.14B232,2013-03-24 01:52:00,
2013-03-23 18:57:00,58.6,35.6,30.06,WSW,238,7.0,8.0,42,0.00,,,0.00,WeatherCatV1.14B232,2013-03-24 01:57:00,
2013-03-23 19:02:00,58.5,35.5,30.06,WSW,253,6.0,7.0,42,0.00,,,0.00,WeatherCatV1.14B232,2013-03-24 02:02:00,
2013-03-23 19:07:00,58.4,36.0,30.06,WSW,240,5.0,8.0,43,0.00,,,0.00,WeatherCatV1.14B232,2013-03-24 02:07:00,
2013-03-23 19:12:00,58.1,36.3,30.06,West,260,4.0,5.0,44,0.00,,,0.00,WeatherCatV1.14B232,2013-03-24 02:12:00,
2013-03-23 19:17:00,58.0,34.4,30.06,West,260,3.0,5.0,41,0.00,,,0.00,WeatherCatV1.14B232,2013-03-24 02:17:00,
2013-03-23 19:22:00,58.0,34.4,30.06,West,262,3.0,4.0,41,0.00,,,0.00,WeatherCatV1.14B232,2013-03-24 02:22:00,
2013-03-23 19:27:00,57.8,34.3,30.06,WSW,250,2.0,4.0,41,0.00,,,0.00,WeatherCatV1.14B232,2013-03-24 02:27:00,
2013-03-23 19:32:00,57.9,33.7,30.06,SW,231,2.0,5.0,40,0.00,,,0.00,WeatherCatV1.14B232,2013-03-24 02:32:00,
2013-03-23 19:37:00,58.1,33.9,30.06,WSW,247,2.0,3.0,40,0.00,,,0.00,WeatherCatV1.14B232,2013-03-24 02:37:00,
2013-03-23 19:42:00,58.0,33.8,30.06,WSW,243,2.0,3.0,40,0.00,,,0.00,WeatherCatV1.14B232,2013-03-24 02:42:00,
2013-03-23 19:47:00,58.0,33.8,30.06,WSW,254,3.0,3.0,40,0.00,,,0.00,WeatherCatV1.14B232,2013-03-24 02:47:00,
2013-03-23 19:52:00,57.8,34.3,30.06,SW,231,3.0,4.0,41,0.00,,,0.00,WeatherCatV1.14B232,2013-03-24 02:52:00,
2013-03-23 19:57:00,57.6,34.1,30.06,SW,232,2.0,3.0,41,0.00,,,0.00,WeatherCatV1.14B232,2013-03-24 02:57:00,
2013-03-23 20:02:00,57.2,34.9,30.06,SW,226,2.0,2.0,43,0.00,,,0.00,WeatherCatV1.14B232,2013-03-24 03:02:00,
2013-03-23 20:07:00,57.1,34.8,30.06,WSW,247,2.0,2.0,43,0.00,,,0.00,WeatherCatV1.14B232,2013-03-24 03:07:00,
2013-03-23 20:12:00,57.0,35.3,30.06,SW,232,0.0,0.0,44,0.00,,,0.00,WeatherCatV1.14B232,2013-03-24 03:12:00,
2013-03-23 20:17:00,56.8,34.5,30.06,WSW,240,0.0,0.0,43,0.00,,,0.00,WeatherCatV1.14B232,2013-03-24 03:17:00,
2013-03-23 20:22:00,57.0,34.1,30.06,WSW,240,0.0,0.0,42,0.00,,,0.00,WeatherCatV1.14B232,2013-03-24 03:22:00,
2013-03-23 20:27:00,57.3,33.8,30.06,WSW,257,2.0,2.0,41,0.00,,,0.00,WeatherCatV1.14B232,2013-03-24 03:27:00,
2013-03-23 20:32:00,56.4,36.4,30.07,WSW,250,1.0,3.0,47,0.00,,,0.00,WeatherCatV1.14B232,2013-03-24 03:32:00,
2013-03-23 20:37:00,55.2,41.1,30.06,SW,232,1.0,1.0,59,0.00,,,0.00,WeatherCatV1.14B232,2013-03-24 03:37:00,
2013-03-23 20:42:00,54.6,40.1,30.06,SW,217,1.0,2.0,58,0.00,,,0.00,WeatherCatV1.14B232,2013-03-24 03:42:00,
2013-03-23 20:47:00,54.7,38.9,30.07,SW,220,1.0,3.0,55,0.00,,,0.00,WeatherCatV1.14B232,2013-03-24 03:47:00,
2013-03-23 20:52:00,55.1,36.8,30.07,WSW,240,2.0,3.0,50,0.00,,,0.00,WeatherCatV1.14B232,2013-03-24 03:52:00,
2013-03-23 20:57:00,55.5,36.1,30.07,West,259,2.0,2.0,48,0.00,,,0.00,WeatherCatV1.14B232,2013-03-24 03:57:00,
2013-03-23 21:00:00,55.5,36.7,30.07,WSW,238,1.0,1.0,49,0.00,,,0.00,WeatherCatV1.14B232,2013-03-24 04:00:00,
2013-03-23 21:01:00,55.4,37.1,30.07,SW,229,1.0,2.0,50,0.00,,,0.00,WeatherCatV1.14B232,2013-03-24 04:01:00,
2013-03-23 21:06:00,55.2,36.4,30.07,SW,232,2.0,3.0,49,0.00,,,0.00,WeatherCatV1.14B232,2013-03-24 04:06:00,
2013-03-23 21:11:00,55.2,36.9,30.07,WSW,243,3.0,3.0,50,0.00,,,0.00,WeatherCatV1.14B232,2013-03-24 04:11:00,
2013-03-23 21:16:00,55.1,36.8,30.07,WSW,246,2.0,2.0,50,0.00,,,0.00,WeatherCatV1.14B232,2013-03-24 04:16:00,
2013-03-23 21:21:00,54.8,38.0,30.07,WSW,246,2.0,2.0,53,0.00,,,0.00,WeatherCatV1.14B232,2013-03-24 04:21:00,
2013-03-23 21:26:00,54.9,37.6,30.07,WSW,253,1.0,2.0,52,0.00,,,0.00,WeatherCatV1.14B232,2013-03-24 04:26:00,
2013-03-23 21:31:00,55.1,38.3,30.07,WSW,248,2.0,3.0,53,0.00,,,0.00,WeatherCatV1.14B232,2013-03-24 04:31:00,
2013-03-23 21:36:00,54.9,38.1,30.08,SW,236,0.0,0.0,53,0.00,,,0.00,WeatherCatV1.14B232,2013-03-24 04:36:00,
2013-03-23 21:41:00,54.7,38.9,30.08,WSW,238,3.0,3.0,55,0.00,,,0.00,WeatherCatV1.14B232,2013-03-24 04:41:00,
2013-03-23 21:46:00,54.4,40.4,30.08,SW,233,2.0,3.0,59,0.00,,,0.00,WeatherCatV1.14B232,2013-03-24 04:46:00,
2013-03-23 21:51:00,53.6,41.7,30.08,WSW,256,3.0,4.0,64,0.00,,,0.00,WeatherCatV1.14B232,2013-03-24 04:51:00,
2013-03-23 21:56:00,53.0,41.6,30.08,SSW,212,2.0,4.0,65,0.00,,,0.00,WeatherCatV1.14B232,2013-03-24 04:56:00,
2013-03-23 22:01:00,52.5,42.6,30.08,WSW,243,2.0,5.0,69,0.00,,,0.00,WeatherCatV1.14B232,2013-03-24 05:01:00,
2013-03-23 22:06:00,51.9,42.8,30.08,SW,217,3.0,5.0,71,0.00,,,0.00,WeatherCatV1.14B232,2013-03-24 05:06:00,
2013-03-23 22:11:00,51.5,42.4,30.08,WSW,248,3.0,5.0,71,0.00,,,0.00,WeatherCatV1.14B232,2013-03-24 05:11:00,
2013-03-23 22:16:00,51.6,42.5,30.08,WSW,246,2.0,4.0,71,0.00,,,0.00,WeatherCatV1.14B232,2013-03-24 05:16:00,
2013-03-23 22:21:00,51.6,42.9,30.08,WSW,250,2.0,5.0,72,0.00,,,0.00,WeatherCatV1.14B232,2013-03-24 05:21:00,
2013-03-23 22:26:00,51.1,42.8,30.08,SW,226,4.0,6.0,73,0.00,,,0.00,WeatherCatV1.14B232,2013-03-24 05:26:00,
2013-03-23 22:31:00,50.8,42.5,30.08,West,281,4.0,6.0,73,0.00,,,0.00,WeatherCatV1.14B232,2013-03-24 05:31:00,
2013-03-23 22:36:00,50.6,43.0,30.08,WSW,242,3.0,4.0,75,0.00,,,0.00,WeatherCatV1.14B232,2013-03-24 05:36:00,
2013-03-23 22:41:00,50.4,42.8,30.08,WSW,249,2.0,5.0,75,0.00,,,0.00,WeatherCatV1.14B232,2013-03-24 05:41:00,
2013-03-23 22:46:00,50.1,42.8,30.08,WSW,240,3.0,5.0,76,0.00,,,0.00,WeatherCatV1.14B232,2013-03-24 05:46:00,
2013-03-23 22:51:00,50.0,42.7,30.08,West,259,4.0,6.0,76,0.00,,,0.00,WeatherCatV1.14B232,2013-03-24 05:51:00,
2013-03-23 22:56:00,50.2,42.6,30.08,WSW,252,6.0,8.0,75,0.00,,,0.00,WeatherCatV1.14B232,2013-03-24 05:56:00,
2013-03-23 23:01:00,50.0,43.1,30.08,WSW,248,5.0,8.0,77,0.00,,,0.00,WeatherCatV1.14B232,2013-03-24 06:01:00,
2013-03-23 23:06:00,49.7,43.5,30.08,SW,217,4.0,7.0,79,0.00,,,0.00,WeatherCatV1.14B232,2013-03-24 06:06:00,
2013-03-23 23:11:00,49.4,43.5,30.08,WSW,238,4.0,6.0,80,0.00,,,0.00,WeatherCatV1.14B232,2013-03-24 06:11:00,
2013-03-23 23:16:00,49.0,43.4,30.09,WSW,253,5.0,7.0,81,0.00,,,0.00,WeatherCatV1.14B232,2013-03-24 06:16:00,
2013-03-23 23:21:00,48.8,43.6,30.08,WSW,240,5.0,7.0,82,0.00,,,0.00,WeatherCatV1.14B232,2013-03-24 06:21:00,
2013-03-23 23:26:00,48.7,43.1,30.08,WSW,246,3.0,5.0,81,0.00,,,0.00,WeatherCatV1.14B232,2013-03-24 06:26:00,
2013-03-23 23:31:00,48.7,43.1,30.08,West,259,3.0,4.0,81,0.00,,,0.00,WeatherCatV1.14B232,2013-03-24 06:31:00,
2013-03-23 23:36:00,48.7,43.1,30.08,WSW,255,4.0,5.0,81,0.00,,,0.00,WeatherCatV1.14B232,2013-03-24 06:36:00,
2013-03-23 23:41:00,48.7,43.1,30.08,WSW,249,3.0,5.0,81,0.00,,,0.00,WeatherCatV1.14B232,2013-03-24 06:41:00,
2013-03-23 23:46:00,48.6,43.0,30.08,WSW,240,3.0,6.0,81,0.00,,,0.00,WeatherCatV1.14B232,2013-03-24 06:46:00,
2013-03-23 23:51:00,48.5,42.9,30.08,SW,227,2.0,4.0,81,0.00,,,0.00,WeatherCatV1.14B232,2013-03-24 06:51:00,
2013-03-23 23:56:00,48.4,43.2,30.08,WSW,238,2.0,3.0,82,0.00,,,0.00,WeatherCatV1.14B232,2013-03-24 06:56:00,